﻿測定場所 (Monitoring sites),日付 (Measurement date),時間 (Measurement time),線量率 最大値 (max) μGy/h,線量率 最小値 (min) μGy/h,線量率 平均値 (average) μGy/h,
大田 (Ota),2019-03-03,23:01～24:00,0.0444,0.0387,0.0414,
大田 (Ota),2019-03-03,22:01～23:00,0.0444,0.0367,0.0400,
大田 (Ota),2019-03-03,21:01～22:00,0.0432,0.0365,0.0396,
大田 (Ota),2019-03-03,20:01～21:00,0.0433,0.0369,0.0395,
大田 (Ota),2019-03-03,19:01～20:00,0.0420,0.0363,0.0393,
大田 (Ota),2019-03-03,18:01～19:00,0.0433,0.0361,0.0398,
大田 (Ota),2019-03-03,17:01～18:00,0.0430,0.0373,0.0403,
大田 (Ota),2019-03-03,16:01～17:00,0.0444,0.0374,0.0409,
大田 (Ota),2019-03-03,15:01～16:00,0.0458,0.0378,0.0425,
大田 (Ota),2019-03-03,14:01～15:00,0.0455,0.0369,0.0413,
大田 (Ota),2019-03-03,13:01～14:00,0.0472,0.0398,0.0433,
大田 (Ota),2019-03-03,12:01～13:00,0.0479,0.0405,0.0443,
大田 (Ota),2019-03-03,11:01～12:00,0.0506,0.0431,0.0464,
大田 (Ota),2019-03-03,10:01～11:00,0.0492,0.0422,0.0456,
大田 (Ota),2019-03-03,09:01～10:00,0.0503,0.0412,0.0440,
大田 (Ota),2019-03-03,08:01～09:00,0.0463,0.0393,0.0429,
大田 (Ota),2019-03-03,07:01～08:00,0.0440,0.0361,0.0402,
大田 (Ota),2019-03-03,06:01～07:00,0.0405,0.0331,0.0364,
大田 (Ota),2019-03-03,05:01～06:00,0.0367,0.0325,0.0345,
大田 (Ota),2019-03-03,04:01～05:00,0.0373,0.0328,0.0344,
大田 (Ota),2019-03-03,03:01～04:00,0.0357,0.0325,0.0342,
大田 (Ota),2019-03-03,02:01～03:00,0.0356,0.0326,0.0341,
大田 (Ota),2019-03-03,01:01～02:00,0.0364,0.0323,0.0342,
大田 (Ota),2019-03-03,00:01～01:00,0.0367,0.0313,0.0336,
大田 (Ota),2019-03-02,23:01～24:00,0.0364,0.0310,0.0338,
大田 (Ota),2019-03-02,22:01～23:00,0.0356,0.0317,0.0339,
大田 (Ota),2019-03-02,21:01～22:00,0.0362,0.0321,0.0341,
大田 (Ota),2019-03-02,20:01～21:00,0.0364,0.0314,0.0341,
大田 (Ota),2019-03-02,19:01～20:00,0.0356,0.0321,0.0338,
大田 (Ota),2019-03-02,18:01～19:00,0.0364,0.0320,0.0340,
大田 (Ota),2019-03-02,17:01～18:00,0.0359,0.0315,0.0340,
大田 (Ota),2019-03-02,16:01～17:00,0.0361,0.0324,0.0341,
大田 (Ota),2019-03-02,15:01～16:00,0.0362,0.0321,0.0339,
大田 (Ota),2019-03-02,14:01～15:00,0.0360,0.0323,0.0339,
大田 (Ota),2019-03-02,13:01～14:00,0.0356,0.0319,0.0340,
大田 (Ota),2019-03-02,12:01～13:00,0.0368,0.0317,0.0338,
大田 (Ota),2019-03-02,11:01～12:00,0.0360,0.0324,0.0341,
大田 (Ota),2019-03-02,10:01～11:00,0.0356,0.0325,0.0343,
大田 (Ota),2019-03-02,09:01～10:00,0.0364,0.0314,0.0342,
大田 (Ota),2019-03-02,08:01～09:00,0.0363,0.0318,0.0342,
大田 (Ota),2019-03-02,07:01～08:00,0.0371,0.0324,0.0343,
大田 (Ota),2019-03-02,06:01～07:00,0.0363,0.0323,0.0341,
大田 (Ota),2019-03-02,05:01～06:00,0.0360,0.0321,0.0339,
大田 (Ota),2019-03-02,04:01～05:00,0.0368,0.0324,0.0342,
大田 (Ota),2019-03-02,03:01～04:00,0.0358,0.0320,0.0338,
大田 (Ota),2019-03-02,02:01～03:00,0.0366,0.0320,0.0340,
大田 (Ota),2019-03-02,01:01～02:00,0.0358,0.0321,0.0336,
大田 (Ota),2019-03-02,00:01～01:00,0.0358,0.0318,0.0336,
大田 (Ota),2019-03-01,23:01～24:00,0.0353,0.0319,0.0337,
大田 (Ota),2019-03-01,22:01～23:00,0.0369,0.0327,0.0340,
大田 (Ota),2019-03-01,21:01～22:00,0.0361,0.0310,0.0339,
大田 (Ota),2019-03-01,20:01～21:00,0.0361,0.0317,0.0338,
大田 (Ota),2019-03-01,19:01～20:00,0.0358,0.0317,0.0337,
大田 (Ota),2019-03-01,18:01～19:00,0.0358,0.0317,0.0338,
大田 (Ota),2019-03-01,17:01～18:00,0.0355,0.0320,0.0338,
大田 (Ota),2019-03-01,16:01～17:00,0.0371,0.0322,0.0338,
大田 (Ota),2019-03-01,15:01～16:00,0.0359,0.0314,0.0337,
大田 (Ota),2019-03-01,14:01～15:00,0.0365,0.0313,0.0341,
大田 (Ota),2019-03-01,13:01～14:00,0.0366,0.0322,0.0343,
大田 (Ota),2019-03-01,12:01～13:00,0.0361,0.0326,0.0342,
大田 (Ota),2019-03-01,11:01～12:00,0.0379,0.0332,0.0351,
大田 (Ota),2019-03-01,10:01～11:00,0.0390,0.0345,0.0364,
大田 (Ota),2019-03-01,09:01～10:00,0.0369,0.0320,0.0348,
大田 (Ota),2019-03-01,08:01～09:00,0.0395,0.0335,0.0361,
大田 (Ota),2019-03-01,07:01～08:00,0.0429,0.0361,0.0394,
大田 (Ota),2019-03-01,06:01～07:00,0.0425,0.0350,0.0379,
大田 (Ota),2019-03-01,05:01～06:00,0.0384,0.0344,0.0361,
大田 (Ota),2019-03-01,04:01～05:00,0.0395,0.0341,0.0367,
大田 (Ota),2019-03-01,03:01～04:00,0.0392,0.0346,0.0366,
大田 (Ota),2019-03-01,02:01～03:00,0.0425,0.0357,0.0390,
大田 (Ota),2019-03-01,01:01～02:00,0.0438,0.0347,0.0393,
大田 (Ota),2019-03-01,00:01～01:00,0.0368,0.0335,0.0349,
大田 (Ota),2019-02-28,23:01～24:00,0.0372,0.0337,0.0352,
大田 (Ota),2019-02-28,22:01～23:00,0.0400,0.0344,0.0365,
大田 (Ota),2019-02-28,21:01～22:00,0.0442,0.0366,0.0401,
大田 (Ota),2019-02-28,20:01～21:00,0.0486,0.0402,0.0436,
大田 (Ota),2019-02-28,19:01～20:00,0.0520,0.0437,0.0477,
大田 (Ota),2019-02-28,18:01～19:00,0.0540,0.0476,0.0507,
大田 (Ota),2019-02-28,17:01～18:00,0.0580,0.0489,0.0532,
大田 (Ota),2019-02-28,16:01～17:00,0.0575,0.0492,0.0540,
大田 (Ota),2019-02-28,15:01～16:00,0.0557,0.0486,0.0515,
大田 (Ota),2019-02-28,14:01～15:00,0.0567,0.0485,0.0528,
大田 (Ota),2019-02-28,13:01～14:00,0.0563,0.0483,0.0525,
大田 (Ota),2019-02-28,12:01～13:00,0.0557,0.0480,0.0519,
大田 (Ota),2019-02-28,11:01～12:00,0.0552,0.0477,0.0514,
大田 (Ota),2019-02-28,10:01～11:00,0.0525,0.0448,0.0484,
大田 (Ota),2019-02-28,09:01～10:00,0.0469,0.0396,0.0433,
大田 (Ota),2019-02-28,08:01～09:00,0.0469,0.0398,0.0432,
大田 (Ota),2019-02-28,07:01～08:00,0.0500,0.0413,0.0459,
大田 (Ota),2019-02-28,06:01～07:00,0.0465,0.0333,0.0392,
大田 (Ota),2019-02-28,05:01～06:00,0.0366,0.0321,0.0342,
大田 (Ota),2019-02-28,04:01～05:00,0.0359,0.0321,0.0341,
大田 (Ota),2019-02-28,03:01～04:00,0.0369,0.0321,0.0344,
大田 (Ota),2019-02-28,02:01～03:00,0.0376,0.0330,0.0350,
大田 (Ota),2019-02-28,01:01～02:00,0.0417,0.0339,0.0372,
大田 (Ota),2019-02-28,00:01～01:00,0.0428,0.0365,0.0401,
大田 (Ota),2019-02-27,23:01～24:00,0.0427,0.0350,0.0385,
大田 (Ota),2019-02-27,22:01～23:00,0.0475,0.0393,0.0436,
大田 (Ota),2019-02-27,21:01～22:00,0.0481,0.0388,0.0431,
大田 (Ota),2019-02-27,20:01～21:00,0.0426,0.0352,0.0383,
大田 (Ota),2019-02-27,19:01～20:00,0.0379,0.0324,0.0351,
大田 (Ota),2019-02-27,18:01～19:00,0.0369,0.0324,0.0344,
大田 (Ota),2019-02-27,17:01～18:00,0.0360,0.0316,0.0343,
大田 (Ota),2019-02-27,16:01～17:00,0.0363,0.0326,0.0343,
大田 (Ota),2019-02-27,15:01～16:00,0.0368,0.0329,0.0345,
大田 (Ota),2019-02-27,14:01～15:00,0.0364,0.0325,0.0345,
大田 (Ota),2019-02-27,13:01～14:00,0.0369,0.0321,0.0345,
大田 (Ota),2019-02-27,12:01～13:00,0.0367,0.0329,0.0347,
大田 (Ota),2019-02-27,11:01～12:00,0.0369,0.0329,0.0346,
大田 (Ota),2019-02-27,10:01～11:00,0.0370,0.0324,0.0344,
大田 (Ota),2019-02-27,09:01～10:00,0.0366,0.0328,0.0347,
大田 (Ota),2019-02-27,08:01～09:00,0.0375,0.0322,0.0345,
大田 (Ota),2019-02-27,07:01～08:00,0.0366,0.0328,0.0345,
大田 (Ota),2019-02-27,06:01～07:00,0.0371,0.0329,0.0345,
大田 (Ota),2019-02-27,05:01～06:00,0.0369,0.0322,0.0343,
大田 (Ota),2019-02-27,04:01～05:00,0.0367,0.0320,0.0343,
大田 (Ota),2019-02-27,03:01～04:00,0.0361,0.0319,0.0342,
大田 (Ota),2019-02-27,02:01～03:00,0.0362,0.0323,0.0344,
大田 (Ota),2019-02-27,01:01～02:00,0.0366,0.0323,0.0345,
大田 (Ota),2019-02-27,00:01～01:00,0.0366,0.0327,0.0346,
大田 (Ota),2019-02-26,23:01～24:00,0.0369,0.0331,0.0349,
大田 (Ota),2019-02-26,22:01～23:00,0.0365,0.0328,0.0347,
大田 (Ota),2019-02-26,21:01～22:00,0.0366,0.0325,0.0344,
大田 (Ota),2019-02-26,20:01～21:00,0.0366,0.0321,0.0344,
大田 (Ota),2019-02-26,19:01～20:00,0.0370,0.0324,0.0344,
大田 (Ota),2019-02-26,18:01～19:00,0.0366,0.0328,0.0346,
大田 (Ota),2019-02-26,17:01～18:00,0.0370,0.0319,0.0344,
大田 (Ota),2019-02-26,16:01～17:00,0.0365,0.0323,0.0345,
大田 (Ota),2019-02-26,15:01～16:00,0.0371,0.0328,0.0347,
大田 (Ota),2019-02-26,14:01～15:00,0.0369,0.0330,0.0348,
大田 (Ota),2019-02-26,13:01～14:00,0.0368,0.0321,0.0347,
大田 (Ota),2019-02-26,12:01～13:00,0.0366,0.0326,0.0347,
大田 (Ota),2019-02-26,11:01～12:00,0.0369,0.0327,0.0350,
大田 (Ota),2019-02-26,10:01～11:00,0.0396,0.0337,0.0359,
大田 (Ota),2019-02-26,09:01～10:00,0.0372,0.0329,0.0352,
大田 (Ota),2019-02-26,08:01～09:00,0.0366,0.0325,0.0348,
大田 (Ota),2019-02-26,07:01～08:00,0.0369,0.0330,0.0348,
大田 (Ota),2019-02-26,06:01～07:00,0.0368,0.0322,0.0346,
大田 (Ota),2019-02-26,05:01～06:00,0.0365,0.0331,0.0346,
大田 (Ota),2019-02-26,04:01～05:00,0.0360,0.0325,0.0344,
大田 (Ota),2019-02-26,03:01～04:00,0.0370,0.0329,0.0350,
大田 (Ota),2019-02-26,02:01～03:00,0.0369,0.0331,0.0349,
大田 (Ota),2019-02-26,01:01～02:00,0.0371,0.0334,0.0350,
大田 (Ota),2019-02-26,00:01～01:00,0.0366,0.0332,0.0349,
大田 (Ota),2019-02-25,23:01～24:00,0.0368,0.0331,0.0349,
大田 (Ota),2019-02-25,22:01～23:00,0.0366,0.0327,0.0345,
大田 (Ota),2019-02-25,21:01～22:00,0.0369,0.0327,0.0342,
大田 (Ota),2019-02-25,20:01～21:00,0.0361,0.0316,0.0341,
大田 (Ota),2019-02-25,19:01～20:00,0.0378,0.0323,0.0344,
大田 (Ota),2019-02-25,18:01～19:00,0.0371,0.0324,0.0344,
大田 (Ota),2019-02-25,17:01～18:00,0.0364,0.0319,0.0345,
大田 (Ota),2019-02-25,16:01～17:00,0.0358,0.0319,0.0343,
大田 (Ota),2019-02-25,15:01～16:00,0.0368,0.0325,0.0347,
大田 (Ota),2019-02-25,14:01～15:00,0.0369,0.0331,0.0354,
大田 (Ota),2019-02-25,13:01～14:00,0.0384,0.0325,0.0356,
大田 (Ota),2019-02-25,12:01～13:00,0.0386,0.0336,0.0357,
大田 (Ota),2019-02-25,11:01～12:00,0.0386,0.0321,0.0351,
大田 (Ota),2019-02-25,10:01～11:00,0.0369,0.0319,0.0344,
大田 (Ota),2019-02-25,09:01～10:00,0.0371,0.0324,0.0342,
大田 (Ota),2019-02-25,08:01～09:00,0.0374,0.0320,0.0345,
大田 (Ota),2019-02-25,07:01～08:00,0.0363,0.0327,0.0344,
大田 (Ota),2019-02-25,06:01～07:00,0.0373,0.0326,0.0351,
大田 (Ota),2019-02-25,05:01～06:00,0.0374,0.0334,0.0350,
大田 (Ota),2019-02-25,04:01～05:00,0.0369,0.0325,0.0348,
大田 (Ota),2019-02-25,03:01～04:00,0.0364,0.0312,0.0344,
大田 (Ota),2019-02-25,02:01～03:00,0.0364,0.0316,0.0341,
大田 (Ota),2019-02-25,01:01～02:00,0.0368,0.0322,0.0345,
大田 (Ota),2019-02-25,00:01～01:00,0.0366,0.0325,0.0344,
